| time (UTC) | temp F | wind direction | speed MPH | gust MPH | rain 1hr in | rain 24hr in | rain mn in | humidity % | barometer mb |
| 20260508203037 | 93 | 290 | 3.0 | 10.0 | 0.00 | 0.00 | 0.00 | 16 | 1008.6 |
| 20260508202525 | 93 | 286 | 4.0 | 9.0 | 0.00 | 0.00 | 0.00 | 15 | 1008.7 |
| 20260508202024 | 94 | 259 | 4.0 | 9.0 | 0.00 | 0.00 | 0.00 | 15 | 1008.6 |
| 20260508201539 | 94 | 265 | 2.0 | 9.0 | 0.00 | 0.00 | 0.00 | 15 | 1008.8 |
| 20260508201024 | 93 | 168 | 2.0 | 10.0 | 0.00 | 0.00 | 0.00 | 16 | 1008.8 |
| 20260508200524 | 93 | 349 | 4.0 | 10.0 | 0.00 | 0.00 | 0.00 | 16 | 1009.0 |
| 20260508200047 | 93 | 304 | 1.0 | 9.0 | 0.00 | 0.00 | 0.00 | 16 | 1009.0 |
| 20260508195523 | 93 | 312 | 3.0 | 9.0 | 0.00 | 0.00 | 0.00 | 15 | 1009.1 |
| 20260508195027 | 93 | 213 | 3.0 | 9.0 | 0.00 | 0.00 | 0.00 | 16 | 1009.1 |
| 20260508194545 | 93 | 322 | 3.0 | 9.0 | 0.00 | 0.00 | 0.00 | 16 | 1009.2 |
| 20260508194023 | 92 | 292 | 1.0 | 11.0 | 0.00 | 0.00 | 0.00 | 17 | 1009.2 |
| 20260508193523 | 92 | 318 | 3.0 | 11.0 | 0.00 | 0.00 | 0.00 | 17 | 1009.3 |
| 20260508193044 | 93 | 310 | 4.0 | 11.0 | 0.00 | 0.00 | 0.00 | 17 | 1009.5 |
| 20260508192524 | 93 | 226 | 3.0 | 9.0 | 0.00 | 0.00 | 0.00 | 16 | 1009.5 |
| 20260508192025 | 92 | 265 | 2.0 | 9.0 | 0.00 | 0.00 | 0.00 | 17 | 1009.7 |
| 20260508191539 | 92 | 238 | 4.0 | 9.0 | 0.00 | 0.00 | 0.00 | 17 | 1009.6 |
| 20260508191024 | 92 | 263 | 4.0 | 9.0 | 0.00 | 0.00 | 0.00 | 17 | 1009.7 |
| 20260508190524 | 91 | 225 | 2.0 | 8.0 | 0.00 | 0.00 | 0.00 | 17 | 1009.7 |
| 20260508190054 | 91 | 245 | 2.0 | 9.0 | 0.00 | 0.00 | 0.00 | 17 | 1009.9 |
| 20260508185524 | 90 | 347 | 2.0 | 9.0 | 0.00 | 0.00 | 0.00 | 17 | 1009.9 |
| 20260508185024 | 91 | 325 | 4.0 | 9.0 | 0.00 | 0.00 | 0.00 | 16 | 1010.0 |
| 20260508184558 | 92 | 269 | 3.0 | 7.0 | 0.00 | 0.00 | 0.00 | 16 | 1010.0 |
| 20260508184024 | 91 | 0 | 1.0 | 7.0 | 0.00 | 0.00 | 0.00 | 17 | 1010.2 |
| 20260508183523 | 91 | 213 | 1.0 | 7.0 | 0.00 | 0.00 | 0.00 | 17 | 1010.3 |
| 20260508183039 | 90 | 133 | 1.0 | 8.0 | 0.00 | 0.00 | 0.00 | 17 | 1010.3 |
| 20260508182527 | 90 | 69 | 1.0 | 8.0 | 0.00 | 0.00 | 0.00 | 16 | 1010.3 |
| 20260508182025 | 90 | 259 | 2.0 | 8.0 | 0.00 | 0.00 | 0.00 | 18 | 1010.4 |
| 20260508181551 | 90 | 319 | 2.0 | 7.0 | 0.00 | 0.00 | 0.00 | 17 | 1010.3 |
| 20260508181024 | 90 | 0 | 1.0 | 7.0 | 0.00 | 0.00 | 0.00 | 18 | 1010.5 |
| 20260508180524 | 89 | 0 | 1.0 | 7.0 | 0.00 | 0.00 | 0.00 | 18 | 1010.6 |
| 20260508180039 | 89 | 0 | 2.0 | 7.0 | 0.00 | 0.00 | 0.00 | 19 | 1010.6 |
| 20260508175525 | 89 | 0 | 0.0 | 7.0 | 0.00 | 0.00 | 0.00 | 19 | 1010.6 |
| 20260508175027 | 88 | 0 | 0.0 | 7.0 | 0.00 | 0.00 | 0.00 | 20 | 1010.7 |
| 20260508174543 | 88 | 192 | 1.0 | 6.0 | 0.00 | 0.00 | 0.00 | 20 | 1010.7 |
| 20260508174027 | 87 | 0 | 1.0 | 7.0 | 0.00 | 0.00 | 0.00 | 20 | 1010.8 |
| 20260508173524 | 87 | 176 | 0.0 | 7.0 | 0.00 | 0.00 | 0.00 | 20 | 1010.8 |
| 20260508173047 | 87 | 194 | 2.0 | 5.0 | 0.00 | 0.00 | 0.00 | 20 | 1010.8 |
| 20260508172524 | 86 | 252 | 1.0 | 6.0 | 0.00 | 0.00 | 0.00 | 21 | 1010.8 |
| 20260508172025 | 86 | 319 | 2.0 | 7.0 | 0.00 | 0.00 | 0.00 | 21 | 1010.8 |
| 20260508171540 | 87 | 317 | 2.0 | 7.0 | 0.00 | 0.00 | 0.00 | 20 | 1010.9 |
| 20260508171023 | 87 | 215 | 1.0 | 6.0 | 0.00 | 0.00 | 0.00 | 20 | 1010.9 |
| 20260508170523 | 87 | 161 | 0.0 | 4.0 | 0.00 | 0.00 | 0.00 | 20 | 1010.9 |
| 20260508170041 | 86 | 0 | 0.0 | 5.0 | 0.00 | 0.00 | 0.00 | 20 | 1011.0 |
| 20260508165524 | 86 | 167 | 1.0 | 5.0 | 0.00 | 0.00 | 0.00 | 20 | 1011.0 |
| 20260508165023 | 86 | 200 | 1.0 | 4.0 | 0.00 | 0.00 | 0.00 | 20 | 1011.0 |
| 20260508164549 | 85 | 94 | 1.0 | 5.0 | 0.00 | 0.00 | 0.00 | 21 | 1011.1 |
| 20260508164026 | 85 | 0 | 1.0 | 5.0 | 0.00 | 0.00 | 0.00 | 21 | 1011.1 |
| 20260508163527 | 84 | 176 | 1.0 | 4.0 | 0.00 | 0.00 | 0.00 | 21 | 1011.1 |
| 20260508163038 | 83 | 0 | 0.0 | 4.0 | 0.00 | 0.00 | 0.00 | 22 | 1011.2 |
| 20260508162524 | 83 | 85 | 0.0 | 6.0 | 0.00 | 0.00 | 0.00 | 22 | 1011.1 |
| 20260508162027 | 82 | 153 | 2.0 | 6.0 | 0.00 | 0.00 | 0.00 | 23 | 1011.1 |
| 20260508161548 | 82 | 212 | 2.0 | 7.0 | 0.00 | 0.00 | 0.00 | 22 | 1011.1 |
| 20260508161024 | 82 | 0 | 1.0 | 8.0 | 0.00 | 0.00 | 0.00 | 25 | 1011.0 |
| 20260508160523 | 81 | 160 | 2.0 | 8.0 | 0.00 | 0.00 | 0.00 | 26 | 1011.0 |
| 20260508160039 | 81 | 199 | 2.0 | 8.0 | 0.00 | 0.00 | 0.00 | 25 | 1010.9 |
| 20260508155524 | 81 | 119 | 2.0 | 7.0 | 0.00 | 0.00 | 0.00 | 27 | 1010.9 |
| 20260508155024 | 80 | 193 | 1.0 | 7.0 | 0.00 | 0.00 | 0.00 | 27 | 1011.0 |
| 20260508154542 | 80 | 140 | 2.0 | 6.0 | 0.00 | 0.00 | 0.00 | 27 | 1011.0 |
| 20260508154025 | 79 | 91 | 2.0 | 7.0 | 0.00 | 0.00 | 0.00 | 28 | 1011.1 |
| 20260508153524 | 78 | 148 | 1.0 | 7.0 | 0.00 | 0.00 | 0.00 | 28 | 1011.2 |
| 20260508153039 | 78 | 100 | 3.0 | 7.0 | 0.00 | 0.00 | 0.00 | 28 | 1011.2 |
| 20260508152524 | 78 | 151 | 3.0 | 7.0 | 0.00 | 0.00 | 0.00 | 29 | 1011.2 |
| 20260508152024 | 77 | 96 | 2.0 | 7.0 | 0.00 | 0.00 | 0.00 | 29 | 1011.2 |
| 20260508151538 | 77 | 132 | 2.0 | 7.0 | 0.00 | 0.00 | 0.00 | 29 | 1011.2 |
| 20260508151025 | 76 | 107 | 1.0 | 6.0 | 0.00 | 0.00 | 0.00 | 29 | 1011.2 |
| 20260508150529 | 76 | 150 | 2.0 | 6.0 | 0.00 | 0.00 | 0.00 | 30 | 1011.2 |
| 20260508150050 | 75 | 145 | 2.0 | 7.0 | 0.00 | 0.00 | 0.00 | 31 | 1011.3 |
| 20260508145525 | 75 | 156 | 2.0 | 8.0 | 0.00 | 0.00 | 0.00 | 31 | 1011.3 |
| 20260508145023 | 74 | 157 | 3.0 | 10.0 | 0.00 | 0.00 | 0.00 | 31 | 1011.2 |
| 20260508144600 | 74 | 133 | 3.0 | 11.0 | 0.00 | 0.00 | 0.00 | 32 | 1011.2 |
| 20260508144024 | 73 | 167 | 3.0 | 11.0 | 0.00 | 0.00 | 0.00 | 31 | 1011.2 |
| 20260508143525 | 73 | 177 | 4.0 | 11.0 | 0.00 | 0.00 | 0.00 | 32 | 1011.2 |
| 20260508143048 | 73 | 98 | 3.0 | 9.0 | 0.00 | 0.00 | 0.00 | 32 | 1011.1 |
| 20260508142526 | 72 | 106 | 3.0 | 8.0 | 0.00 | 0.00 | 0.00 | 32 | 1011.1 |
| 20260508142025 | 72 | 107 | 2.0 | 7.0 | 0.00 | 0.00 | 0.00 | 33 | 1011.2 |
| 20260508141545 | 71 | 113 | 1.0 | 9.0 | 0.00 | 0.00 | 0.00 | 34 | 1011.2 |
| 20260508141024 | 71 | 153 | 3.0 | 9.0 | 0.00 | 0.00 | 0.00 | 34 | 1011.1 |
| 20260508140527 | 70 | 136 | 3.0 | 10.0 | 0.00 | 0.00 | 0.00 | 34 | 1010.9 |
| 20260508140046 | 70 | 117 | 3.0 | 10.0 | 0.00 | 0.00 | 0.00 | 35 | 1010.9 |
| 20260508135527 | 69 | 111 | 3.0 | 9.0 | 0.00 | 0.00 | 0.00 | 35 | 1010.9 |
| 20260508135027 | 69 | 157 | 2.0 | 7.0 | 0.00 | 0.00 | 0.00 | 35 | 1010.8 |
| 20260508134551 | 68 | 131 | 2.0 | 9.0 | 0.00 | 0.00 | 0.00 | 36 | 1010.8 |
| 20260508134024 | 68 | 164 | 3.0 | 9.0 | 0.00 | 0.00 | 0.00 | 36 | 1010.7 |
| 20260508133526 | 68 | 146 | 2.0 | 9.0 | 0.00 | 0.00 | 0.00 | 36 | 1010.6 |
| 20260508133108 | 67 | 144 | 2.0 | 8.0 | 0.00 | 0.00 | 0.00 | 36 | 1010.6 |
| 20260508132524 | 67 | 92 | 3.0 | 8.0 | 0.00 | 0.00 | 0.00 | 36 | 1010.5 |
| 20260508132024 | 67 | 156 | 4.0 | 8.0 | 0.00 | 0.00 | 0.00 | 36 | 1010.4 |
| 20260508131539 | 67 | 163 | 3.0 | 8.0 | 0.00 | 0.00 | 0.00 | 36 | 1010.4 |
| 20260508131029 | 66 | 118 | 2.0 | 7.0 | 0.00 | 0.00 | 0.00 | 37 | 1010.4 |
| 20260508130523 | 66 | 113 | 2.0 | 7.0 | 0.00 | 0.00 | 0.00 | 37 | 1010.2 |
| 20260508130039 | 66 | 145 | 3.0 | 8.0 | 0.00 | 0.00 | 0.00 | 37 | 1010.3 |
| 20260508125524 | 66 | 158 | 2.0 | 8.0 | 0.00 | 0.00 | 0.00 | 37 | 1010.0 |
| 20260508125025 | 66 | 106 | 2.0 | 8.0 | 0.00 | 0.00 | 0.00 | 37 | 1010.0 |
| 20260508124538 | 66 | 153 | 3.0 | 8.0 | 0.00 | 0.00 | 0.00 | 37 | 1010.0 |
| 20260508124024 | 66 | 111 | 3.0 | 8.0 | 0.00 | 0.00 | 0.00 | 37 | 1009.9 |
| 20260508123528 | 67 | 92 | 2.0 | 6.0 | 0.00 | 0.00 | 0.00 | 37 | 1009.9 |
| 20260508123057 | 67 | 123 | 2.0 | 6.0 | 0.00 | 0.00 | 0.00 | 36 | 1009.9 |
| 20260508122524 | 67 | 95 | 2.0 | 8.0 | 0.00 | 0.00 | 0.00 | 36 | 1009.7 |
| 20260508122024 | 67 | 126 | 2.0 | 8.0 | 0.00 | 0.00 | 0.00 | 36 | 1009.8 |
| 20260508121543 | 67 | 142 | 3.0 | 8.0 | 0.00 | 0.00 | 0.00 | 36 | 1009.8 |
| 20260508121024 | 67 | 158 | 3.0 | 7.0 | 0.00 | 0.00 | 0.00 | 36 | 1009.8 |
| 20260508120524 | 68 | 125 | 3.0 | 8.0 | 0.00 | 0.00 | 0.00 | 36 | 1009.8 |
| 20260508120039 | 68 | 117 | 3.0 | 8.0 | 0.00 | 0.00 | 0.00 | 35 | 1009.7 |
| 20260508115524 | 68 | 144 | 2.0 | 8.0 | 0.00 | 0.00 | 0.00 | 36 | 1009.7 |
| 20260508115025 | 68 | 109 | 3.0 | 8.0 | 0.00 | 0.00 | 0.00 | 36 | 1009.7 |
| 20260508114539 | 68 | 141 | 4.0 | 8.0 | 0.00 | 0.00 | 0.00 | 36 | 1009.7 |
| 20260508114024 | 68 | 186 | 3.0 | 9.0 | 0.00 | 0.00 | 0.00 | 36 | 1009.6 |
| 20260508113526 | 68 | 130 | 3.0 | 9.0 | 0.00 | 0.00 | 0.00 | 35 | 1009.6 |
| 20260508113059 | 68 | 159 | 3.0 | 11.0 | 0.00 | 0.00 | 0.00 | 35 | 1009.6 |
| 20260508112527 | 68 | 155 | 3.0 | 11.0 | 0.00 | 0.00 | 0.00 | 35 | 1009.6 |
| 20260508112024 | 68 | 163 | 3.0 | 9.0 | 0.00 | 0.00 | 0.00 | 35 | 1009.6 |
| 20260508111547 | 68 | 152 | 2.0 | 6.0 | 0.00 | 0.00 | 0.00 | 35 | 1009.6 |
| 20260508111023 | 68 | 125 | 2.0 | 6.0 | 0.00 | 0.00 | 0.00 | 35 | 1009.5 |
| 20260508110523 | 69 | 138 | 2.0 | 5.0 | 0.00 | 0.00 | 0.00 | 34 | 1009.6 |
| 20260508110050 | 69 | 121 | 2.0 | 5.0 | 0.00 | 0.00 | 0.00 | 34 | 1009.6 |
| 20260508105524 | 69 | 177 | 2.0 | 6.0 | 0.00 | 0.00 | 0.00 | 34 | 1009.7 |
| 20260508105023 | 69 | 105 | 2.0 | 6.0 | 0.00 | 0.00 | 0.00 | 34 | 1009.6 |
| 20260508104540 | 69 | 110 | 1.0 | 8.0 | 0.00 | 0.00 | 0.00 | 34 | 1009.5 |
| 20260508104024 | 69 | 126 | 2.0 | 8.0 | 0.00 | 0.00 | 0.00 | 34 | 1009.5 |
| 20260508103525 | 69 | 153 | 3.0 | 9.0 | 0.00 | 0.00 | 0.00 | 34 | 1009.4 |
| 20260508103047 | 69 | 130 | 3.0 | 9.0 | 0.00 | 0.00 | 0.00 | 33 | 1009.4 |
| 20260508102524 | 69 | 132 | 3.0 | 8.0 | 0.00 | 0.00 | 0.00 | 33 | 1009.4 |
| 20260508102024 | 69 | 157 | 3.0 | 10.0 | 0.00 | 0.00 | 0.00 | 33 | 1009.4 |
| 20260508101541 | 69 | 162 | 4.0 | 10.0 | 0.00 | 0.00 | 0.00 | 33 | 1009.2 |
| 20260508101024 | 69 | 154 | 4.0 | 10.0 | 0.00 | 0.00 | 0.00 | 34 | 1009.2 |
| 20260508100524 | 69 | 182 | 4.0 | 9.0 | 0.00 | 0.00 | 0.00 | 34 | 1009.2 |
| 20260508100042 | 69 | 126 | 2.0 | 9.0 | 0.00 | 0.00 | 0.00 | 34 | 1009.2 |
| 20260508095524 | 69 | 140 | 4.0 | 9.0 | 0.00 | 0.00 | 0.00 | 34 | 1009.1 |
| 20260508095023 | 69 | 130 | 3.0 | 8.0 | 0.00 | 0.00 | 0.00 | 34 | 1009.0 |
| 20260508094539 | 69 | 111 | 3.0 | 9.0 | 0.00 | 0.00 | 0.00 | 34 | 1009.1 |
| 20260508094024 | 69 | 93 | 4.0 | 10.0 | 0.00 | 0.00 | 0.00 | 35 | 1009.1 |
| 20260508093524 | 69 | 133 | 3.0 | 10.0 | 0.00 | 0.00 | 0.00 | 35 | 1009.1 |
| 20260508093039 | 69 | 159 | 2.0 | 10.0 | 0.00 | 0.00 | 0.00 | 35 | 1009.0 |
| 20260508092523 | 69 | 152 | 2.0 | 10.0 | 0.00 | 0.00 | 0.00 | 35 | 1009.1 |
| 20260508092023 | 69 | 117 | 3.0 | 10.0 | 0.00 | 0.00 | 0.00 | 35 | 1009.1 |
| 20260508091550 | 69 | 119 | 3.0 | 8.0 | 0.00 | 0.00 | 0.00 | 35 | 1009.1 |
| 20260508091025 | 69 | 122 | 3.0 | 7.0 | 0.00 | 0.00 | 0.00 | 34 | 1009.1 |
| 20260508090525 | 69 | 126 | 3.0 | 10.0 | 0.00 | 0.00 | 0.00 | 34 | 1009.2 |
| 20260508090058 | 69 | 92 | 4.0 | 10.0 | 0.00 | 0.00 | 0.00 | 34 | 1009.2 |
| 20260508085526 | 69 | 79 | 3.0 | 9.0 | 0.00 | 0.00 | 0.00 | 33 | 1009.2 |
| 20260508085024 | 69 | 115 | 4.0 | 9.0 | 0.00 | 0.00 | 0.00 | 33 | 1009.2 |
| 20260508084539 | 69 | 105 | 4.0 | 8.0 | 0.00 | 0.00 | 0.00 | 32 | 1009.2 |
| 20260508084025 | 69 | 104 | 3.0 | 8.0 | 0.00 | 0.00 | 0.00 | 31 | 1009.2 |
| 20260508083524 | 70 | 82 | 2.0 | 6.0 | 0.00 | 0.00 | 0.00 | 29 | 1009.1 |
| 20260508083039 | 70 | 106 | 2.0 | 6.0 | 0.00 | 0.00 | 0.00 | 28 | 1009.2 |
| 20260508082527 | 70 | 98 | 2.0 | 6.0 | 0.00 | 0.00 | 0.00 | 27 | 1009.2 |
| 20260508082028 | 70 | 95 | 2.0 | 6.0 | 0.00 | 0.00 | 0.00 | 26 | 1009.2 |
| 20260508081544 | 70 | 108 | 2.0 | 6.0 | 0.00 | 0.00 | 0.00 | 25 | 1009.2 |
| 20260508081028 | 71 | 103 | 2.0 | 6.0 | 0.00 | 0.00 | 0.00 | 25 | 1009.3 |
| 20260508080526 | 71 | 111 | 3.0 | 6.0 | 0.00 | 0.00 | 0.00 | 24 | 1009.3 |
| 20260508080040 | 71 | 104 | 2.0 | 6.0 | 0.00 | 0.00 | 0.00 | 23 | 1009.3 |
| 20260508075526 | 71 | 93 | 2.0 | 5.0 | 0.00 | 0.00 | 0.00 | 22 | 1009.3 |
| 20260508075025 | 71 | 116 | 2.0 | 6.0 | 0.00 | 0.00 | 0.00 | 22 | 1009.2 |
| 20260508074543 | 71 | 80 | 2.0 | 6.0 | 0.00 | 0.00 | 0.00 | 22 | 1009.2 |
| 20260508074025 | 72 | 98 | 2.0 | 6.0 | 0.00 | 0.00 | 0.00 | 22 | 1009.3 |
| 20260508073525 | 72 | 95 | 2.0 | 4.0 | 0.00 | 0.00 | 0.00 | 23 | 1009.3 |
| 20260508073040 | 72 | 113 | 1.0 | 4.0 | 0.00 | 0.00 | 0.00 | 23 | 1009.4 |
| 20260508072524 | 72 | 82 | 2.0 | 3.0 | 0.00 | 0.00 | 0.00 | 23 | 1009.3 |
| 20260508072027 | 73 | 102 | 1.0 | 3.0 | 0.00 | 0.00 | 0.00 | 24 | 1009.3 |
| 20260508071552 | 73 | 102 | 1.0 | 3.0 | 0.00 | 0.00 | 0.00 | 24 | 1009.3 |
| 20260508071026 | 73 | 115 | 1.0 | 4.0 | 0.00 | 0.00 | 0.00 | 23 | 1009.4 |
| 20260508070524 | 73 | 145 | 1.0 | 6.0 | 0.00 | 0.00 | 0.00 | 23 | 1009.3 |
| 20260508070043 | 73 | 105 | 2.0 | 6.0 | 0.00 | 0.00 | 0.00 | 23 | 1009.4 |
| 20260508065524 | 73 | 0 | 2.0 | 6.0 | 0.00 | 0.00 | 0.00 | 22 | 1009.4 |
| 20260508065024 | 74 | 103 | 1.0 | 4.0 | 0.00 | 0.00 | 0.00 | 22 | 1009.2 |
| 20260508064539 | 74 | 102 | 1.0 | 4.0 | 0.00 | 0.00 | 0.00 | 21 | 1009.2 |
| 20260508064025 | 73 | 87 | 2.0 | 4.0 | 0.00 | 0.00 | 0.00 | 22 | 1009.2 |
| 20260508063525 | 73 | 0 | 2.0 | 4.0 | 0.00 | 0.00 | 0.00 | 23 | 1009.2 |
| 20260508063039 | 74 | 78 | 1.0 | 3.0 | 0.00 | 0.00 | 0.00 | 24 | 1009.3 |
| 20260508062524 | 74 | 95 | 0.0 | 2.0 | 0.00 | 0.00 | 0.00 | 23 | 1009.1 |
| 20260508062025 | 75 | 0 | 0.0 | 0.0 | 0.00 | 0.00 | 0.00 | 22 | 1009.2 |
| 20260508061543 | 75 | 0 | 0.0 | 2.0 | 0.00 | 0.00 | 0.00 | 22 | 1009.1 |
| 20260508061026 | 75 | 0 | 0.0 | 2.0 | 0.00 | 0.00 | 0.00 | 20 | 1009.1 |
| 20260508060524 | 76 | 0 | 0.0 | 3.0 | 0.00 | 0.00 | 0.00 | 20 | 1009.0 |
| 20260508060044 | 76 | 194 | 1.0 | 3.0 | 0.00 | 0.00 | 0.00 | 20 | 1009.1 |
| 20260508055525 | 76 | 194 | 0.0 | 3.0 | 0.00 | 0.00 | 0.00 | 19 | 1009.0 |
| 20260508055025 | 76 | 194 | 1.0 | 4.0 | 0.00 | 0.00 | 0.00 | 19 | 1009.0 |
| 20260508054545 | 77 | 194 | 1.0 | 4.0 | 0.00 | 0.00 | 0.00 | 19 | 1009.0 |
| 20260508054024 | 77 | 213 | 0.0 | 2.0 | 0.00 | 0.00 | 0.00 | 20 | 1009.1 |
| 20260508053523 | 77 | 213 | 0.0 | 3.0 | 0.00 | 0.00 | 0.00 | 18 | 1008.9 |
| 20260508053101 | 77 | 213 | 0.0 | 3.0 | 0.00 | 0.00 | 0.00 | 18 | 1009.0 |
| 20260508052524 | 77 | 206 | 1.0 | 4.0 | 0.00 | 0.00 | 0.00 | 18 | 1008.9 |
| 20260508052024 | 77 | 205 | 2.0 | 4.0 | 0.00 | 0.00 | 0.00 | 18 | 1009.0 |
| 20260508051541 | 77 | 208 | 2.0 | 4.0 | 0.00 | 0.00 | 0.00 | 19 | 1009.0 |
| 20260508051025 | 77 | 188 | 1.0 | 2.0 | 0.00 | 0.00 | 0.00 | 19 | 1008.9 |
| 20260508050523 | 77 | 189 | 1.0 | 2.0 | 0.00 | 0.00 | 0.00 | 19 | 1008.9 |
| 20260508050041 | 78 | 189 | 1.0 | 2.0 | 0.00 | 0.00 | 0.00 | 18 | 1008.9 |
| 20260508045528 | 78 | 0 | 0.0 | 3.0 | 0.00 | 0.00 | 0.00 | 18 | 1008.8 |
| 20260508045024 | 79 | 189 | 0.0 | 3.0 | 0.00 | 0.00 | 0.00 | 18 | 1008.8 |
| 20260508044538 | 79 | 189 | 1.0 | 3.0 | 0.00 | 0.00 | 0.00 | 17 | 1008.7 |
| 20260508044027 | 79 | 188 | 1.0 | 3.0 | 0.00 | 0.00 | 0.00 | 17 | 1008.7 |
| 20260508043525 | 79 | 188 | 1.0 | 3.0 | 0.00 | 0.00 | 0.00 | 17 | 1008.6 |
| 20260508043040 | 80 | 0 | 0.0 | 0.0 | 0.00 | 0.00 | 0.00 | 16 | 1008.5 |
| 20260508042524 | 80 | 0 | 0.0 | 0.0 | 0.00 | 0.00 | 0.00 | 16 | 1008.5 |
| 20260508042023 | 81 | 0 | 0.0 | 1.0 | 0.00 | 0.00 | 0.00 | 16 | 1008.5 |
| 20260508041606 | 81 | 0 | 0.0 | 2.0 | 0.00 | 0.00 | 0.00 | 15 | 1008.3 |
| 20260508041024 | 81 | 0 | 0.0 | 3.0 | 0.00 | 0.00 | 0.00 | 15 | 1008.5 |
| 20260508040525 | 82 | 232 | 1.0 | 3.0 | 0.00 | 0.00 | 0.00 | 15 | 1008.2 |
| 20260508040051 | 82 | 248 | 1.0 | 3.0 | 0.00 | 0.00 | 0.00 | 14 | 1008.3 |
| 20260508035524 | 82 | 258 | 1.0 | 3.0 | 0.00 | 0.00 | 0.00 | 15 | 1008.2 |
| 20260508035027 | 82 | 236 | 1.0 | 3.0 | 0.00 | 0.00 | 0.00 | 14 | 1008.1 |
| 20260508034539 | 83 | 0 | 1.0 | 3.0 | 0.00 | 0.00 | 0.00 | 14 | 1007.9 |
| 20260508034025 | 83 | 240 | 1.0 | 4.0 | 0.00 | 0.00 | 0.00 | 14 | 1007.9 |
| 20260508033524 | 83 | 0 | 1.0 | 4.0 | 0.00 | 0.00 | 0.00 | 14 | 1007.9 |
| 20260508033040 | 84 | 205 | 2.0 | 4.0 | 0.00 | 0.00 | 0.00 | 14 | 1007.7 |
| 20260508032524 | 84 | 288 | 1.0 | 3.0 | 0.00 | 0.00 | 0.00 | 13 | 1007.8 |
| 20260508032024 | 85 | 267 | 0.0 | 4.0 | 0.00 | 0.00 | 0.00 | 13 | 1007.7 |
| 20260508031540 | 85 | 246 | 1.0 | 4.0 | 0.00 | 0.00 | 0.00 | 12 | 1007.8 |
| 20260508031024 | 85 | 262 | 1.0 | 4.0 | 0.00 | 0.00 | 0.00 | 12 | 1007.6 |
| 20260508030528 | 86 | 276 | 1.0 | 3.0 | 0.00 | 0.00 | 0.00 | 12 | 1007.5 |
| 20260508030038 | 86 | 260 | 0.0 | 4.0 | 0.00 | 0.00 | 0.00 | 12 | 1007.4 |
| 20260508025524 | 86 | 0 | 0.0 | 4.0 | 0.00 | 0.00 | 0.00 | 11 | 1007.4 |
| 20260508025024 | 87 | 239 | 1.0 | 4.0 | 0.00 | 0.00 | 0.00 | 11 | 1007.3 |
| 20260508024543 | 87 | 243 | 1.0 | 4.0 | 0.00 | 0.00 | 0.00 | 11 | 1007.2 |
| 20260508024024 | 87 | 0 | 1.0 | 6.0 | 0.00 | 0.00 | 0.00 | 11 | 1007.1 |
| 20260508023528 | 88 | 269 | 1.0 | 6.0 | 0.00 | 0.00 | 0.00 | 11 | 1007.2 |
| 20260508023038 | 88 | 0 | 2.0 | 6.0 | 0.00 | 0.00 | 0.00 | 11 | 1007.1 |
| 20260508022524 | 88 | 279 | 2.0 | 7.0 | 0.00 | 0.00 | 0.00 | 10 | 1007.0 |
| 20260508022024 | 89 | 298 | 2.0 | 7.0 | 0.00 | 0.00 | 0.00 | 10 | 1007.0 |
| 20260508021539 | 89 | 306 | 2.0 | 7.0 | 0.00 | 0.00 | 0.00 | 10 | 1007.0 |
| 20260508021024 | 89 | 306 | 2.0 | 6.0 | 0.00 | 0.00 | 0.00 | 10 | 1006.9 |
| 20260508020524 | 90 | 302 | 2.0 | 7.0 | 0.00 | 0.00 | 0.00 | 10 | 1006.8 |
| 20260508020045 | 90 | 267 | 2.0 | 7.0 | 0.00 | 0.00 | 0.00 | 9 | 1006.6 |
| 20260508015528 | 90 | 299 | 1.0 | 8.0 | 0.00 | 0.00 | 0.00 | 9 | 1006.7 |
| 20260508015025 | 91 | 287 | 2.0 | 9.0 | 0.00 | 0.00 | 0.00 | 9 | 1006.8 |
| 20260508014539 | 91 | 304 | 3.0 | 11.0 | 0.00 | 0.00 | 0.00 | 9 | 1006.9 |
| 20260508014025 | 91 | 253 | 4.0 | 11.0 | 0.00 | 0.00 | 0.00 | 8 | 1006.9 |
| 20260508013530 | 91 | 286 | 2.0 | 11.0 | 0.00 | 0.00 | 0.00 | 8 | 1006.9 |
| 20260508013039 | 91 | 270 | 2.0 | 9.0 | 0.00 | 0.00 | 0.00 | 8 | 1006.9 |
| 20260508012524 | 92 | 289 | 3.0 | 12.0 | 0.00 | 0.00 | 0.00 | 8 | 1006.9 |
| 20260508012024 | 92 | 282 | 5.0 | 12.0 | 0.00 | 0.00 | 0.00 | 8 | 1006.8 |
| 20260508011551 | 92 | 269 | 2.0 | 11.0 | 0.00 | 0.00 | 0.00 | 8 | 1006.8 |
| 20260508011024 | 92 | 252 | 4.0 | 11.0 | 0.00 | 0.00 | 0.00 | 8 | 1006.8 |
| 20260508010527 | 92 | 256 | 4.0 | 11.0 | 0.00 | 0.00 | 0.00 | 8 | 1006.7 |
| 20260508010043 | 92 | 317 | 3.0 | 11.0 | 0.00 | 0.00 | 0.00 | 8 | 1006.8 |
| 20260508005527 | 92 | 262 | 5.0 | 11.0 | 0.00 | 0.00 | 0.00 | 8 | 1006.6 |
| 20260508005026 | 92 | 308 | 4.0 | 11.0 | 0.00 | 0.00 | 0.00 | 8 | 1006.6 |
| 20260508004543 | 93 | 296 | 3.0 | 9.0 | 0.00 | 0.00 | 0.00 | 8 | 1006.6 |
| 20260508004027 | 92 | 260 | 3.0 | 9.0 | 0.00 | 0.00 | 0.00 | 8 | 1006.8 |
| 20260508003524 | 93 | 274 | 3.0 | 8.0 | 0.00 | 0.00 | 0.00 | 8 | 1006.7 |
| 20260508003038 | 93 | 298 | 3.0 | 9.0 | 0.00 | 0.00 | 0.00 | 7 | 1006.8 |
| 20260508002524 | 93 | 275 | 4.0 | 9.0 | 0.00 | 0.00 | 0.00 | 7 | 1006.7 |
| 20260508002024 | 93 | 302 | 3.0 | 8.0 | 0.00 | 0.00 | 0.00 | 8 | 1006.8 |
| 20260508001549 | 93 | 250 | 2.0 | 8.0 | 0.00 | 0.00 | 0.00 | 8 | 1006.7 |
| 20260508001024 | 93 | 298 | 3.0 | 8.0 | 0.00 | 0.00 | 0.00 | 7 | 1006.7 |
| 20260508000524 | 93 | 309 | 2.0 | 6.0 | 0.00 | 0.00 | 0.00 | 8 | 1006.8 |
| 20260508000043 | 93 | 243 | 1.0 | 5.0 | 0.00 | 0.00 | 0.00 | 8 | 1006.7 |
| 20260507235524 | 93 | 331 | 0.0 | 9.0 | 0.00 | 0.00 | 0.00 | 7 | 1006.8 |
| 20260507235024 | 93 | 352 | 2.0 | 10.0 | 0.00 | 0.00 | 0.00 | 7 | 1006.8 |
| 20260507234541 | 93 | 321 | 3.0 | 10.0 | 0.00 | 0.00 | 0.00 | 7 | 1006.8 |
| 20260507234024 | 93 | 336 | 5.0 | 10.0 | 0.00 | 0.00 | 0.00 | 7 | 1006.8 |
| 20260507233524 | 93 | 205 | 3.0 | 9.0 | 0.00 | 0.00 | 0.00 | 8 | 1006.8 |
| 20260507233055 | 93 | 235 | 4.0 | 10.0 | 0.00 | 0.00 | 0.00 | 8 | 1006.8 |
| 20260507232523 | 93 | 287 | 3.0 | 10.0 | 0.00 | 0.00 | 0.00 | 8 | 1006.9 |
| 20260507232026 | 93 | 292 | 2.0 | 9.0 | 0.00 | 0.00 | 0.00 | 9 | 1006.8 |
| 20260507231540 | 93 | 240 | 3.0 | 10.0 | 0.00 | 0.00 | 0.00 | 9 | 1006.8 |
| 20260507231025 | 93 | 310 | 2.0 | 10.0 | 0.00 | 0.00 | 0.00 | 9 | 1006.8 |
| 20260507230525 | 93 | 309 | 5.0 | 11.0 | 0.00 | 0.00 | 0.00 | 9 | 1006.8 |
| 20260507230040 | 94 | 269 | 4.0 | 11.0 | 0.00 | 0.00 | 0.00 | 9 | 1006.9 |
| 20260507225524 | 94 | 271 | 4.0 | 11.0 | 0.00 | 0.00 | 0.00 | 9 | 1007.0 |
| 20260507225026 | 94 | 219 | 2.0 | 11.0 | 0.00 | 0.00 | 0.00 | 9 | 1006.9 |
| 20260507224546 | 95 | 255 | 5.0 | 11.0 | 0.00 | 0.00 | 0.00 | 8 | 1006.9 |
| 20260507224024 | 95 | 291 | 3.0 | 11.0 | 0.00 | 0.00 | 0.00 | 9 | 1007.0 |
| 20260507223527 | 95 | 210 | 3.0 | 11.0 | 0.00 | 0.00 | 0.00 | 8 | 1007.1 |
| 20260507223044 | 94 | 256 | 2.0 | 8.0 | 0.00 | 0.00 | 0.00 | 8 | 1007.1 |
| 20260507222530 | 94 | 258 | 1.0 | 8.0 | 0.00 | 0.00 | 0.00 | 9 | 1007.3 |
| 20260507222024 | 93 | 311 | 0.0 | 8.0 | 0.00 | 0.00 | 0.00 | 8 | 1007.3 |
| 20260507221539 | 94 | 329 | 2.0 | 8.0 | 0.00 | 0.00 | 0.00 | 8 | 1007.4 |
| 20260507221024 | 93 | 240 | 2.0 | 11.0 | 0.00 | 0.00 | 0.00 | 9 | 1007.5 |
| 20260507220526 | 93 | 316 | 0.0 | 13.0 | 0.00 | 0.00 | 0.00 | 9 | 1007.6 |
| 20260507220039 | 92 | 352 | 5.0 | 13.0 | 0.00 | 0.00 | 0.00 | 9 | 1007.6 |
| 20260507215527 | 93 | 288 | 6.0 | 13.0 | 0.00 | 0.00 | 0.00 | 9 | 1007.6 |
| 20260507215024 | 94 | 0 | 2.0 | 9.0 | 0.00 | 0.00 | 0.00 | 9 | 1007.7 |
| 20260507214540 | 94 | 208 | 3.0 | 9.0 | 0.00 | 0.00 | 0.00 | 8 | 1007.7 |
| 20260507214026 | 94 | 274 | 4.0 | 10.0 | 0.00 | 0.00 | 0.00 | 8 | 1007.9 |
| 20260507213524 | 94 | 224 | 4.0 | 10.0 | 0.00 | 0.00 | 0.00 | 9 | 1007.8 |
| 20260507213039 | 94 | 296 | 3.0 | 11.0 | 0.00 | 0.00 | 0.00 | 9 | 1008.0 |
| 20260507212524 | 93 | 0 | 1.0 | 12.0 | 0.00 | 0.00 | 0.00 | 8 | 1008.1 |
| 20260507212027 | 93 | 237 | 4.0 | 12.0 | 0.00 | 0.00 | 0.00 | 9 | 1008.1 |
| 20260507211542 | 93 | 331 | 3.0 | 12.0 | 0.00 | 0.00 | 0.00 | 9 | 1008.1 |
| 20260507211027 | 93 | 325 | 2.0 | 9.0 | 0.00 | 0.00 | 0.00 | 9 | 1008.4 |
| 20260507210525 | 93 | 14 | 2.0 | 8.0 | 0.00 | 0.00 | 0.00 | 9 | 1008.4 |
| 20260507210048 | 94 | 18 | 2.0 | 6.0 | 0.00 | 0.00 | 0.00 | 9 | 1008.6 |
| 20260507205524 | 94 | 64 | 0.0 | 5.0 | 0.00 | 0.00 | 0.00 | 9 | 1008.6 |
| 20260507205027 | 94 | 131 | 1.0 | 7.0 | 0.00 | 0.00 | 0.00 | 8 | 1008.7 |
| 20260507204539 | 94 | 0 | 2.0 | 7.0 | 0.00 | 0.00 | 0.00 | 9 | 1008.7 |
| 20260507204025 | 94 | 166 | 1.0 | 7.0 | 0.00 | 0.00 | 0.00 | 9 | 1008.7 |
| 20260507203526 | 92 | 224 | 1.0 | 8.0 | 0.00 | 0.00 | 0.00 | 9 | 1008.8 |